Hurricane Symbol View the latest observations near East Pacific Tropical Storm Bud.

Station MRYA2 - Mary Island, AK Image indicating link to RSS feed of recent meteorological observations for station MRYA2


Conditions at MRYA2 as of
(4:42 am AKDT)
1242 GMT on 07/25/2024:
     

Click on the graph icon in the table below to see a time series plot of the last five days of that observation.

5-day plot - Wind Direction Wind Direction (WDIR):SSW ( 200 deg true )
5-day plot - Wind Speed Wind Speed (WSPD): 1.9 kts
5-day plot - Wind Gust Wind Gust (GST): 4.1 kts
5-day plot - Atmospheric Pressure Atmospheric Pressure (PRES):30.14 in
5-day plot - Air Temperature Air Temperature (ATMP): 54.3 °F
5-day plot - Dew Point Dew Point (DEWP): 52.7 °F
5-day plot - Wind Speed at 10 Meters Wind Speed at 10 meters (WSPD10M): 1.9 kts
5-day plot - Wind Speed at 20 Meters Wind Speed at 20 meters (WSPD20M): 1.9 kts
5-day plot -  Wind Speed, Wind Gust and Atmospheric Pressure Combined plot of Wind Speed, Gust, and Air Pressure
Previous observations
TIME
(AKDT)
5-day plot - Wind Direction
WDIR
 
5-day plot - Wind Speed
WSPD
kts
5-day plot - Wind Gust
GST
kts
5-day plot - Wave Height
WVHT
ft
5-day plot - Dominant Wave Period
DPD
sec
5-day plot - Average Wave Period
APD
sec
5-day plot - Mean Wave Direction
MWD
 
5-day plot - Atmospheric Pressure
PRES
in
5-day plot - Pressure Tendency
PTDY
in
5-day plot - Air Temperature
ATMP
°F
5-day plot - Water Temperature
WTMP
°F
5-day plot - Dew Point
DEWP
°F
5-day plot - Salinity
SAL
psu
5-day plot - Visibility
VIS
nmi
5-day plot - Tide (above MLLW)
TIDE
ft
2024-07-25 04:32 amSSW 1.9 5.1----30.14- 54.7- 52.9---
2024-07-25 04:22 amESE 2.9 7.0----30.14- 55.9- 54.0---
2024-07-25 04:12 amNNE 1.0 5.1----30.14- 56.1- 54.1---
2024-07-25 04:02 amNNW 2.9 6.0----30.13- 55.9- 54.1---
2024-07-25 03:52 am W 1.0 4.1----30.13- 55.0- 53.2---
2024-07-25 03:42 am NW 1.0 6.0----30.13- 55.6- 54.0---
2024-07-25 03:32 amWSW 1.0 4.1----30.13- 54.9- 52.9---
2024-07-25 03:22 amWSW 1.0 2.9----30.13- 55.0- 53.2---
2024-07-25 03:12 amWSW 1.0 2.9----30.13- 55.6- 53.4---
2024-07-25 03:02 amWSW 1.0 2.9----30.13- 55.9- 53.6---
2024-07-25 02:52 am W 1.0 2.9----30.13- 56.5- 54.1---
2024-07-25 02:42 amNNW 4.1 6.0----30.13- 57.4- 55.0---
2024-07-25 02:32 amNNW 1.9 6.0----30.13- 57.0- 54.7---
2024-07-25 02:22 am NW 1.9 7.0----30.13- 56.8- 54.7---
2024-07-25 02:12 amWNW 1.9 5.1----30.12- 56.5- 54.3---
2024-07-25 02:02 am NW 1.0 7.0----30.12- 56.5- 54.1---
2024-07-25 01:52 am NW 1.0 5.1----30.12- 56.8- 54.5---
2024-07-25 01:42 am NW 1.9 7.0----30.12- 56.8- 54.5---
2024-07-25 01:22 amWSW 1.0 2.9----30.11- 54.9- 52.9---
2024-07-25 01:12 am SW 1.0 4.1----30.11- 54.9- 52.5---
2024-07-25 01:02 am NW 1.9 7.0----30.11- 55.2- 52.9---
2024-07-25 12:52 amWSW 1.0 5.1----30.11- 54.0- 52.0---
2024-07-25 12:42 am SW 1.0 2.9----30.11- 53.2- 51.1---
2024-07-25 12:32 am SW 1.9 2.9----30.11- 53.4- 51.3---
2024-07-25 12:22 amSSW 1.9 2.9----30.11- 53.1- 50.9---
2024-07-25 12:12 amSSW 1.9 2.9----30.11- 53.4- 51.1---
2024-07-25 12:02 am SW 1.9 2.9----30.11- 53.6- 51.4---
2024-07-24 11:52 pm SW 1.9 2.9----30.11- 53.8- 51.4---
2024-07-24 11:42 pm SW 1.9 2.9----30.11- 53.8- 51.4---
2024-07-24 11:32 pm SW 1.9 2.9----30.11- 54.0- 51.6---
2024-07-24 11:22 pm SW 1.9 2.9----30.11- 54.1- 51.8---
2024-07-24 11:12 pm SW 1.9 2.9----30.11- 54.5- 52.0---
2024-07-24 11:02 pm SW 1.9 2.9----30.11- 55.2- 52.7---
2024-07-24 10:52 pm SW 1.9 2.9----30.11- 55.2- 52.9---
2024-07-24 10:42 pm SW 1.9 2.9----30.11- 55.0- 52.5---
2024-07-24 10:32 pm SW 1.9 2.9----30.11- 55.6- 53.1---
2024-07-24 10:22 pm SW 1.9 1.9----30.11- 55.6- 53.2---
2024-07-24 10:12 pm SW 1.9 1.9----30.11- 55.8- 53.2---
2024-07-24 10:02 pm SW 1.9 2.9----30.11- 55.9- 53.4---
2024-07-24 09:52 pm SW 1.9 2.9----30.11- 56.3- 53.8---
2024-07-24 09:42 pm SW 1.9 2.9----30.11- 56.5- 54.0---
2024-07-24 09:32 pmSSW 1.9 1.9----30.10- 56.8- 54.3---
2024-07-24 09:22 pm SW 1.0 1.9----30.10- 57.2- 54.3---
2024-07-24 09:12 pm SW 1.0 1.9----30.10- 57.6- 54.5---
2024-07-24 09:02 pmSSW 1.0 1.9----30.10- 57.7- 54.5---
2024-07-24 08:52 pmSSW 1.0 1.9----30.10- 58.1- 54.7---
2024-07-24 08:42 pmSSW 1.0 1.9----30.10- 58.5- 54.7---
2024-07-24 08:32 pmSSW 1.0 1.9----30.09- 59.0- 54.9---
2024-07-24 08:22 pmSSW 1.0 1.9----30.09- 59.5- 55.0---
2024-07-24 08:12 pm- 0.0 1.0----30.09- 60.3- 54.9---
2024-07-24 08:02 pm- 0.0 1.9----30.09- 60.8- 54.9---
2024-07-24 07:52 pm- 0.0 4.1----30.09- 61.2- 55.2---
2024-07-24 07:42 pm- 0.0 1.9----30.08- 61.5- 55.8---
2024-07-24 07:32 pmNNW 2.9 7.0----30.08- 61.9- 55.2---
2024-07-24 07:22 pmNNW 2.9 6.0----30.08- 61.9- 55.2---
2024-07-24 07:12 pmNNW 2.9 8.0----30.08- 61.7- 55.0---
2024-07-24 07:02 pmNNW 4.1 8.0----30.08- 61.7- 55.2---
2024-07-24 06:52 pmNNW 2.9 8.9----30.08- 61.9- 55.4---
2024-07-24 06:42 pmNNW 2.9 8.9----30.08- 61.7- 55.2---
2024-07-24 06:32 pmNNW 2.9 7.0----30.07- 61.7- 55.4---
2024-07-24 06:22 pmNNW 1.9 6.0----30.07- 61.7- 55.2---
2024-07-24 06:12 pmNNW 1.9 5.1----30.07- 61.5- 55.4---
2024-07-24 06:02 pmNNW 2.9 5.1----30.07- 61.3- 55.0---
2024-07-24 05:52 pmNNW 2.9 5.1----30.07- 61.3- 55.0---
2024-07-24 05:42 pmNNW 4.1 6.0----30.07- 61.2- 55.0---
2024-07-24 05:32 pmNNW 2.9 5.1----30.07- 61.3- 54.9---
2024-07-24 05:22 pmNNW 5.1 8.9----30.07- 61.3- 54.9---
2024-07-24 05:12 pmNNW 5.1 8.0----30.07- 61.7- 54.9---
2024-07-24 05:02 pmNNW 2.9 8.0----30.06- 62.4- 54.7---
2024-07-24 04:52 pmNNW 1.9 5.1----30.07- 62.6- 54.9---
2024-07-24 04:42 pmNNW 1.9 5.1----30.07- 62.6- 55.0---
2024-07-24 04:32 pmNNW 1.9 5.1----30.07- 62.8- 55.0---
2024-07-24 04:22 pmNNW 2.9 8.0----30.07- 63.1- 54.9---
2024-07-24 04:12 pmNNW 2.9 8.0----30.07- 63.5- 54.5---
2024-07-24 03:52 pmNNW 4.1 9.9----30.07- 63.5- 54.3---
2024-07-24 03:42 pmNNW 5.1 8.9----30.07- 63.3- 54.3---
2024-07-24 03:32 pmNNW 5.1 9.9----30.07- 63.1- 54.1---
2024-07-24 03:22 pmNNE 1.9 6.0----30.07- 63.5- 55.4---
2024-07-24 03:12 pmNNE 1.9 4.1----30.07- 63.0- 55.0---
2024-07-24 03:02 pm N 1.9 2.9----30.07- 62.2- 55.0---
2024-07-24 02:52 pmNNE 1.0 1.9----30.06- 61.7- 54.3---
2024-07-24 02:42 pm- 0.0 1.9----30.06- 61.7- 55.6---
2024-07-24 02:32 pm- 0.0 2.9----30.07- 61.5- 55.0---
2024-07-24 02:22 pm E 1.9 4.1----30.06- 61.3- 54.7---
2024-07-24 02:12 pmESE 1.9 5.1----30.07- 61.7- 55.2---
2024-07-24 02:02 pm E 1.9 4.1----30.06- 61.2- 54.9---
2024-07-24 01:52 pm E 2.9 5.1----30.06- 61.5- 54.7---
2024-07-24 01:42 pm E 2.9 5.1----30.07- 63.0- 55.6---
2024-07-24 01:32 pmESE 1.9 5.1----30.07- 63.3- 56.1---
2024-07-24 01:22 pmESE 1.9 5.1----30.07- 62.8- 56.3---
2024-07-24 01:12 pm E 1.9 5.1----30.07- 62.4- 55.9---
2024-07-24 01:02 pm E 2.9 5.1----30.06- 61.7- 55.2---
2024-07-24 12:52 pmENE 1.9 5.1----30.06- 61.7- 55.0---
2024-07-24 11:02 amNNW 5.1 8.0----30.04- 59.2- 53.6---
2024-07-24 10:52 amNNW 5.1 7.0----30.04- 59.2- 53.4---
2024-07-24 10:42 amNNW 6.0 7.0----30.03- 58.8- 53.2---
2024-07-24 10:32 amNNW 5.1 8.9----30.03- 58.8- 52.7---
2024-07-24 10:22 amNNW 5.1 8.0----30.03- 58.8- 52.7---
2024-07-24 10:12 amNNW 5.1 8.0----30.03- 58.6- 52.7---
2024-07-24 10:02 amNNW 5.1 8.0----30.03- 58.6- 52.3---
2024-07-24 09:52 amNNW 2.9 6.0----30.03- 58.5- 53.4---
2024-07-24 09:42 amNNW 2.9 4.1----30.03- 58.3- 53.6---
2024-07-24 09:32 amNNW 2.9 5.1----30.03- 58.1- 53.8---
2024-07-24 09:22 amNNW 2.9 5.1----30.03- 58.1- 54.0---
2024-07-24 09:12 amNNW 4.1 6.0----30.03- 57.9- 54.0---
2024-07-24 09:02 amNNW 4.1 7.0----30.03- 57.4- 54.1---
2024-07-24 08:52 amNNW 5.1 8.0----30.03- 57.0- 54.0---
2024-07-24 08:42 amNNW 5.1 8.9----30.03- 57.0- 53.8---
2024-07-24 08:32 amNNW 4.1 7.0----30.03- 57.0- 53.6---
2024-07-24 08:22 amNNW 4.1 8.0----30.03- 57.0- 53.4---
2024-07-24 08:12 amNNW 5.1 9.9----30.02- 57.0- 53.2---
2024-07-24 08:02 amNNW 5.1 9.9----30.02- 57.0- 53.6---
2024-07-24 07:52 amNNW 6.0 9.9----30.02- 57.0- 53.8---
2024-07-24 07:42 am NW 4.1 8.0----30.01- 56.8- 54.0---
2024-07-24 07:32 amNNW 4.1 8.9----30.01- 56.8- 54.3---
2024-07-24 07:22 am NW 1.9 8.0----30.01- 56.8- 54.3---
2024-07-24 07:12 am NW 1.9 7.0----30.01- 56.8- 54.1---
2024-07-24 07:02 amNNW 4.1 6.0----30.01- 56.7- 53.6---
2024-07-24 06:52 am- 0.0 2.9----30.01- 56.7- 54.3---
2024-07-24 06:42 am- 0.0 1.9----30.01- 57.0- 54.5---
2024-07-24 06:32 amNNW 1.9 5.1----30.01- 56.7- 53.6---
2024-07-24 06:22 amNNW 4.1 5.1----30.01- 56.5- 53.2---
2024-07-24 06:12 am NW 1.9 6.0----30.01- 56.5- 54.0---
2024-07-24 06:02 amNNW 4.1 7.0----30.00- 56.7- 53.8---
2024-07-24 05:52 amNNW 2.9 7.0----30.00- 56.7- 54.0---
2024-07-24 05:42 amNNW 5.1 8.9----30.00- 56.5- 53.8---
2024-07-24 05:32 amWNW 1.9 6.0----30.00- 56.3- 54.0---
2024-07-24 05:22 amWNW 1.9 6.0----30.00- 56.5- 54.0---
2024-07-24 05:12 am NW 2.9 9.9----29.99- 56.5- 54.0---
2024-07-24 05:02 am NW 2.9 8.0----29.99- 56.7- 54.1---
2024-07-24 04:52 amNNW 4.1 9.9----29.99- 56.3- 54.1---